K3ZED-2 Weather Reports


time (UTC)temp
C
wind
direction
speed
KPH
gust
KPH
rain 1hr
cm
rain 24hr
cm
rain mn
cm
humidity
%
barometer
mb
20260506231514 18 212 1.6 12.9 0.00 0.28 0.28 86 1008.3
20260506230013 18 208 0.0 16.1 0.00 0.28 0.28 86 1008.2
20260506224513 18 220 8.0 20.9 0.00 0.28 0.28 86 1008.3
20260506223012 18 214 3.2 25.7 0.00 0.28 0.28 85 1008.2
20260506221511 18 200 11.3 24.1 0.00 0.28 0.28 84 1008.3
20260506220011 19 210 14.5 25.7 0.00 0.28 0.28 84 1008.0
20260506214514 19 203 6.4 20.9 0.00 0.28 0.28 84 1007.9
20260506213010 19 208 11.3 22.5 0.00 0.28 0.28 84 1007.8
20260506211510 18 212 0.0 17.7 0.00 0.28 0.28 85 1007.7
20260506210009 19 219 4.8 25.7 0.00 0.28 0.28 84 1007.8
20260506204509 19 213 9.7 22.5 0.00 0.28 0.28 85 1007.5
20260506203007 19 209 9.7 27.4 0.00 0.28 0.28 85 1007.7
20260506201506 19 204 12.9 30.6 0.00 0.28 0.28 85 1007.6
20260506200004 18 224 11.3 27.4 0.00 0.28 0.28 85 1007.6
20260506194502 18 203 16.1 25.7 0.00 0.28 0.28 87 1007.7
20260506193059 18 232 20.9 40.2 0.00 0.28 0.28 88 1007.9
20260506191557 17 217 16.1 30.6 0.00 0.28 0.28 91 1008.1
20260506190058 16 218 9.7 29.0 0.00 0.28 0.28 92 1008.2
20260506184555 16 240 17.7 22.5 0.00 0.28 0.28 92 1008.4
20260506183058 16 214 4.8 27.4 0.00 0.28 0.28 92 1008.4
20260506181618 16 217 14.5 30.6 0.00 0.28 0.28 92 1008.5
20260506180049 16 212 16.1 37.0 0.00 0.28 0.28 92 1008.7
20260506174547 16 220 12.9 40.2 0.00 0.28 0.28 93 1008.7
20260506173057 15 214 14.5 33.8 0.00 0.28 0.28 93 1008.7
20260506171543 15 216 17.7 40.2 0.00 0.28 0.28 93 1008.8
20260506170042 15 212 20.9 41.8 0.00 0.28 0.28 93 1008.7
20260506164543 15 208 12.9 41.8 0.03 0.28 0.28 93 1008.7
20260506163042 16 201 16.1 35.4 0.05 0.28 0.28 94 1008.9
20260506161537 16 256 19.3 35.4 0.10 0.28 0.28 94 1009.1
20260506160035 15 199 8.0 32.2 0.10 0.28 0.28 94 1008.9
20260506154533 15 213 4.8 29.0 0.13 0.25 0.25 93 1009.7
20260506153036 15 241 3.2 38.6 0.15 0.23 0.23 93 1009.9
20260506151530 15 210 19.3 29.0 0.13 0.18 0.18 92 1010.1
20260506150032 15 210 8.0 24.1 0.15 0.18 0.18 92 1009.8
20260506144527 15 212 4.8 25.7 0.13 0.13 0.13 91 1009.7
20260506143028 16 201 11.3 35.4 0.08 0.08 0.08 89 1010.0
20260506141522 16 214 8.0 30.6 0.05 0.05 0.05 89 1010.1
20260506140023 16 205 12.9 38.6 0.03 0.03 0.03 87 1009.9
20260506134517 17 193 17.7 35.4 0.00 0.00 0.00 83 1009.8
20260506133015 17 215 12.9 32.2 0.00 0.00 0.00 83 1009.7
20260506131521 17 191 14.5 32.2 0.00 0.00 0.00 84 1009.7
20260506130012 17 214 24.1 38.6 0.00 0.00 0.00 83 1009.9
20260506124509 17 211 14.5 41.8 0.00 0.00 0.00 82 1010.0
20260506123008 17 231 20.9 45.1 0.00 0.00 0.00 82 1010.1
20260506121505 17 212 24.1 45.1 0.00 0.00 0.00 81 1010.0
20260506120013 17 209 24.1 43.5 0.00 0.00 0.00 82 1009.7
20260506114508 17 217 24.1 43.5 0.00 0.00 0.00 81 1009.6
20260506113104 17 183 19.3 41.8 0.00 0.00 0.00 82 1009.5
20260506111600 17 216 8.0 37.0 0.00 0.00 0.00 82 1009.5
20260506110106 17 207 19.3 38.6 0.00 0.00 0.00 82 1009.5
20260506104601 17 210 19.3 40.2 0.00 0.00 0.00 82 1009.3
20260506103057 17 195 17.7 35.4 0.00 0.00 0.00 83 1009.3
20260506101554 17 213 14.5 40.2 0.00 0.00 0.00 83 1009.3
20260506100053 17 208 20.9 46.7 0.00 0.00 0.00 82 1009.2
20260506094551 17 218 8.0 38.6 0.00 0.00 0.00 82 1009.2
20260506093048 17 229 17.7 35.4 0.00 0.00 0.00 82 1009.3
20260506091552 17 191 19.3 35.4 0.00 0.00 0.00 81 1009.4
20260506090042 17 207 16.1 41.8 0.00 0.00 0.00 81 1009.3
20260506084545 17 212 17.7 40.2 0.00 0.00 0.00 80 1009.3
20260506083036 18 211 19.3 40.2 0.00 0.00 0.00 79 1009.3
20260506081533 18 218 14.5 32.2 0.00 0.00 0.00 79 1009.4
20260506073026 18 235 14.5 37.0 0.00 0.00 0.00 78 1009.6
20260506071525 18 211 14.5 30.6 0.00 0.00 0.00 77 1009.7
20260506061513 18 216 3.2 27.4 0.00 0.00 0.00 75 1010.1
20260506044506 18 210 0.0 8.0 0.00 0.00 0.00 71 1010.6
20260506043003 18 208 0.0 9.7 0.00 0.00 0.00 70 1010.7
20260506041501 18 212 3.2 19.3 0.00 0.00 0.00 69 1010.7
20260506040100 18 180 3.2 17.7 0.00 0.00 0.00 69 1010.7
20260506034615 18 220 0.0 17.7 0.00 0.00 0.00 69 1010.7
20260506033058 18 217 0.0 14.5 0.00 0.00 0.00 68 1010.6
20260506031607 18 218 0.0 14.5 0.00 0.00 0.00 68 1010.5
20260506030057 18 223 1.6 16.1 0.00 0.00 0.00 69 1010.6
20260506024616 18 214 1.6 16.1 0.00 0.00 0.00 69 1010.6
20260506023057 18 181 0.0 6.4 0.00 0.00 0.00 67 1010.8
20260506021558 19 189 0.0 16.1 0.00 0.00 0.00 66 1010.8
20260506020058 19 206 1.6 14.5 0.00 0.00 0.00 65 1010.7
20260506014555 20 200 0.0 12.9 0.00 0.00 0.00 64 1010.6
20260506013107 20 201 0.0 22.5 0.00 0.00 0.00 63 1010.3
20260506011606 20 204 0.0 6.4 0.00 0.00 0.00 62 1010.1
20260506010056 21 210 1.6 9.7 0.00 0.00 0.00 60 1010.0
20260506004554 21 203 0.0 6.4 0.00 0.00 0.00 59 1009.9
20260506003052 21 210 0.0 19.3 0.00 0.00 0.00 57 1009.7
20260506001551 22 203 0.0 4.8 0.00 0.00 0.00 55 1009.6
20260506000052 22 209 0.0 22.5 0.00 0.00 0.00 54 1009.4
20260505234551 22 209 3.2 20.9 0.00 0.00 0.00 52 1009.2
20260505233050 23 212 11.3 29.0 0.00 0.00 0.00 50 1009.1